This is an optional block. Switch it on/off in your settings-file: $SITE['bannerTop'] = false; or $SITE['bannerBottom'] = false;

You can display ads, any other important text or photo’s using text / html or PHP code.

You can place one or more at the top and or bottom and it can all be different for content / size .



Lozoyuela more information Lozoyuela


Meteosat more information blitzortung!


Radar lluvias more information rain snow radar



Pagina Historial Weather Underground texto

Diario Resumen Noviembre 21, 2018 Unidades:  Métrico    impérial   Tanto
« Anterior Dia
Siguiente Dia »
Diario Semana Mensual Anual Personalizada
  Actual: Alto: Baja: Media:
Temperatura: 6.7 °C -17.8 °C 4.5 °C 6.4 °C
Punto de rocío: 3.5 °C -17.8 °C 2.8 °C 3.9 °C
Humedad: 80 % Humidity % 67 % 84 %
Velocidad del Viento: 1.9 km/h 0 km/h 0 km/h 4.8 km/h
Ráfagas de viento: 1 km/h 0 km/h - -
Viento:SSW - - South
Pression baro: 1013.1 hPa 0 hPa 1006.3 hPa -
Précipitaciones: 2.03 mm      
Historical Graphs
 
 
Datos de tabla para Noviembre 21, 2018
Tiempo Temperatura Punto de rocío Pression baro Viento Velocidad del Viento Ráfagas de viento Humedad Las precipitaciones Rate ( Hora )
-17.8 °C -17.8 °C 0 hPa Calm     Humidity % 0 mm
00:04 6.2 °C 3.5 °C 1006.3 hPa WSW 1.9 km/h   83 % 0 mm
00:09 6.2 °C 3.4 °C 1006.3 hPa South 7.4 km/h 0.6 km/h 82 % 0 mm
00:14 6.3 °C 3.4 °C 1006.3 hPa ESE 1.9 km/h 0.5 km/h 82 % 0 mm
00:19 6.3 °C 3.2 °C 1006.3 hPa Calm     81 % 0 mm
00:24 6.2 °C 3.4 °C 1006.3 hPa NW 3.7 km/h 1 km/h 82 % 0 mm
00:29 6.2 °C 3.5 °C 1006.3 hPa North 1.9 km/h 1.3 km/h 83 % 0 mm
00:34 6.2 °C 3.3 °C 1006.3 hPa NW 3.7 km/h 2.1 km/h 82 % 0 mm
00:39 6.2 °C 3.4 °C 1006.3 hPa East 3.2 km/h 2.3 km/h 82 % 0 mm
00:44 6.2 °C 3.4 °C 1006.3 hPa NW 1.9 km/h   82 % 0 mm
00:49 6.2 °C 3.4 °C 1006.3 hPa Calm     82 % 0 mm
00:54 6.3 °C 3.2 °C 1006.3 hPa SE 1.9 km/h   81 % 0 mm
00:59 6.4 °C 3.3 °C 1006.7 hPa WNW 5.6 km/h 3.7 km/h 81 % 0 mm
01:04 6.6 °C 3.3 °C 1006.7 hPa NW 5.6 km/h 0.8 km/h 80 % 0 mm
01:09 6.7 °C 3.5 °C 1006.7 hPa NW 4.8 km/h 5 km/h 80 % 0 mm
01:14 6.8 °C 3.6 °C 1006.7 hPa West 5.6 km/h 3.1 km/h 80 % 0 mm
01:19 6.9 °C 3.5 °C 1006.7 hPa NNW 7.4 km/h 1.4 km/h 79 % 0 mm
01:24 6.9 °C 3.5 °C 1006.7 hPa WSW 3.7 km/h 2.6 km/h 79 % 0 mm
01:29 6.9 °C 3.5 °C 1006.7 hPa West 5.6 km/h 2.7 km/h 79 % 0 mm
01:34 6.9 °C 3.7 °C 1006.7 hPa SW 3.7 km/h 1.4 km/h 80 % 0 mm
01:39 6.9 °C 3.5 °C 1006.7 hPa Calm   0.3 km/h 79 % 0 mm
01:44 6.9 °C 3.7 °C 1006.7 hPa SSE 1.9 km/h 0.2 km/h 80 % 0 mm
01:49 6.8 °C 3.6 °C 1006.7 hPa Calm     80 % 0 mm
01:54 6.7 °C 3.6 °C 1006.7 hPa Calm     81 % 0 mm
01:59 6.5 °C 3.6 °C 1006.7 hPa Calm     82 % 0 mm
02:04 6.4 °C 3.5 °C 1006.7 hPa Calm     82 % 0 mm
02:09 6.3 °C 3.7 °C 1006.7 hPa Calm     83 % 0 mm
02:14 6.2 °C 3.6 °C 1006.7 hPa Calm     83 % 0 mm
02:19 6.1 °C 3.6 °C 1006.7 hPa Calm     84 % 0 mm
02:24 6 °C 3.7 °C 1006.7 hPa Calm     85 % 0 mm
02:29 5.9 °C 3.8 °C 1007 hPa Calm     86 % 0 mm
02:34 5.9 °C 3.9 °C 1007 hPa Calm     87 % 0 mm
02:39 5.8 °C 3.8 °C 1007 hPa West 1.9 km/h   87 % 0 mm
02:44 5.8 °C 3.8 °C 1007 hPa SSE 1.9 km/h   87 % 0 mm
02:49 5.8 °C 3.8 °C 1007 hPa SSE 3.7 km/h 0.6 km/h 87 % 0 mm
02:54 5.7 °C 3.9 °C 1007 hPa SSE 1.9 km/h 0.3 km/h 88 % 0 mm
02:59 5.7 °C 3.8 °C 1007 hPa SSE 1.9 km/h   88 % 0 mm
03:04 5.7 °C 3.8 °C 1007 hPa SSE 1.9 km/h   88 % 0 mm
03:09 5.7 °C 3.8 °C 1007 hPa Calm     88 % 0 mm
03:14 5.7 °C 4 °C 1007 hPa ESE 1.9 km/h   89 % 0 mm
03:19 5.7 °C 3.8 °C 1007 hPa Calm     88 % 0 mm
03:24 5.7 °C 3.8 °C 1007 hPa SSE 3.2 km/h 0.2 km/h 88 % 0 mm
03:29 5.7 °C 3.9 °C 1007 hPa SSE 1.9 km/h 0.3 km/h 88 % 0 mm
03:34 5.8 °C 3.8 °C 1007 hPa ESE 1.9 km/h 1.3 km/h 87 % 0 mm
03:39 5.7 °C 3.7 °C 1007 hPa SSE 1.9 km/h 1.3 km/h 87 % 0 mm
03:44 5.7 °C 3.7 °C 1007.3 hPa SW 1.9 km/h 0.2 km/h 87 % 0 mm
03:49 5.6 °C 3.6 °C 1007 hPa Calm   0.2 km/h 87 % 0 mm
03:54 5.6 °C 3.6 °C 1007.3 hPa SSW 1.9 km/h 0.6 km/h 87 % 0 mm
03:59 5.5 °C 3.5 °C 1007.3 hPa SSE 5.6 km/h 0.3 km/h 87 % 0 mm
04:04 5.4 °C 3.6 °C 1007.3 hPa East 3.7 km/h 1.1 km/h 88 % 0 mm
04:09 5.3 °C 3.6 °C 1007.3 hPa SE 5.6 km/h 1.1 km/h 89 % 0 mm
04:14 5.3 °C 3.6 °C 1007.3 hPa SE 3.7 km/h 0.2 km/h 89 % 0 mm
04:19 5.2 °C 3.7 °C 1007.3 hPa SW 1.9 km/h   90 % 0 mm
04:24 5.2 °C 3.7 °C 1007.3 hPa ESE 1.9 km/h   90 % 0 mm
04:29 5.2 °C 3.7 °C 1007.7 hPa SSE 1.9 km/h   90 % 0 mm
04:34 5.1 °C 3.6 °C 1007.3 hPa SSE 1.9 km/h 0.2 km/h 90 % 0 mm
04:39 5.1 °C 3.6 °C 1007.3 hPa SE 5.6 km/h 1.4 km/h 90 % 0 mm
04:44 5.2 °C 3.5 °C 1007.3 hPa SE 1.9 km/h 0.8 km/h 89 % 0 mm
04:49 5.1 °C 3.4 °C 1007.7 hPa SE 3.7 km/h   89 % 0 mm
04:54 5.1 °C 3.4 °C 1007.3 hPa SE 5.6 km/h 1.6 km/h 89 % 0 mm
04:59 5.1 °C 3.4 °C 1007.3 hPa SE 3.7 km/h 1.8 km/h 89 % 0 mm
05:04 5.1 °C 3.4 °C 1007.7 hPa East 3.7 km/h   89 % 0 mm
05:09 5 °C 3.3 °C 1007.7 hPa Calm     89 % 0 mm
05:14 4.9 °C 3.2 °C 1007.7 hPa Calm     89 % 0 mm
05:19 4.8 °C 3.1 °C 1007.7 hPa ESE 3.7 km/h 0.6 km/h 89 % 0 mm
05:24 4.7 °C 3.2 °C 1007.7 hPa SSE 5.6 km/h 1 km/h 90 % 0 mm
05:29 4.8 °C 3.3 °C 1008 hPa SE 3.7 km/h   90 % 0 mm
05:34 4.8 °C 3.1 °C 1008 hPa SE 3.7 km/h 0.5 km/h 89 % 0 mm
05:39 4.7 °C 3.1 °C 1008 hPa Calm     89 % 0 mm
05:44 4.7 °C 3 °C 1008 hPa Calm     89 % 0 mm
05:49 4.6 °C 2.9 °C 1008.4 hPa Calm   0.3 km/h 89 % 0 mm
05:54 4.6 °C 2.9 °C 1008 hPa SSE 5.6 km/h 1.1 km/h 89 % 0 mm
05:59 4.5 °C 2.8 °C 1008 hPa SE 3.2 km/h 0.6 km/h 89 % 0 mm
06:04 4.5 °C 3 °C 1008 hPa SE 3.2 km/h 1.8 km/h 90 % 0 mm
06:09 4.6 °C 3.1 °C 1008.4 hPa ESE 5.6 km/h 2.3 km/h 90 % 0 mm
06:14 4.6 °C 3.1 °C 1008.4 hPa WSW 3.7 km/h 0.5 km/h 90 % 0 mm
06:19 4.6 °C 3.1 °C 1008.4 hPa East 1.9 km/h 0.6 km/h 90 % 0 mm
06:24 4.6 °C 3.1 °C 1008.4 hPa West 1.9 km/h   90 % 0 mm
06:29 4.6 °C 3.1 °C 1008.7 hPa South 1.9 km/h 0.5 km/h 90 % 0 mm
06:34 4.6 °C 3.1 °C 1008.7 hPa Calm     90 % 0 mm
06:39 4.7 °C 3.2 °C 1008.7 hPa Calm     90 % 0 mm
06:44 4.7 °C 3.2 °C 1008.7 hPa North 3.7 km/h 0.2 km/h 90 % 0 mm
06:49 4.8 °C 3.1 °C 1008.7 hPa Calm     89 % 0 mm
06:54 4.8 °C 3.1 °C 1008.7 hPa Calm     89 % 0 mm
06:59 4.8 °C 3.1 °C 1008.7 hPa Calm     89 % 0 mm
07:04 4.8 °C 3.2 °C 1008.7 hPa Calm     89 % 0 mm
07:09 4.9 °C 3.2 °C 1008.7 hPa Calm     89 % 0 mm
07:14 4.9 °C 3.3 °C 1008.7 hPa NW 3.7 km/h 0.8 km/h 89 % 0 mm
07:19 5.1 °C 3.3 °C 1008.7 hPa NW 1.9 km/h   88 % 0 mm
07:24 5.2 °C 3.4 °C 1008.7 hPa Calm     88 % 0 mm
07:29 5.3 °C 3.4 °C 1009 hPa West 3.7 km/h 0.2 km/h 88 % 0 mm
07:34 5.4 °C 3.4 °C 1009 hPa Calm     87 % 0 mm
07:39 5.4 °C 3.6 °C 1009 hPa North 1.6 km/h 1.1 km/h 88 % 0 mm
07:44 5.4 °C 3.6 °C 1009 hPa Calm     88 % 0 mm
07:49 5.5 °C 3.7 °C 1009 hPa SSW 5.6 km/h 1.6 km/h 88 % 0 mm
07:54 5.6 °C 3.7 °C 1009 hPa SSE 1.9 km/h 0.8 km/h 88 % 0 mm
07:59 5.6 °C 3.9 °C 1009 hPa SSE 3.7 km/h 0.2 km/h 89 % 0 mm
08:04 5.6 °C 3.9 °C 1009.4 hPa West 1.9 km/h   89 % 0 mm
08:09 5.7 °C 3.8 °C 1009.4 hPa Calm   1.8 km/h 88 % 0 mm
08:14 5.6 °C 3.9 °C 1009.4 hPa SE 5.6 km/h 0.6 km/h 89 % 0.51 mm
08:19 5.6 °C 3.9 °C 1009.4 hPa Calm     89 % 0.51 mm
08:24 5.4 °C 3.7 °C 1009.7 hPa Calm     89 % 0.51 mm
08:29 5.2 °C 3.7 °C 1009.7 hPa NW 1.9 km/h   90 % 1.02 mm
08:34 5.1 °C 3.6 °C 1009.7 hPa Calm     90 % 1.27 mm
08:39 4.9 °C 3.6 °C 1009.7 hPa Calm     91 % 1.52 mm
08:44 4.8 °C 3.5 °C 1009.7 hPa Calm     91 % 1.52 mm
08:49 4.8 °C 3.6 °C 1010 hPa Calm     92 % 1.78 mm
08:54 4.8 °C 3.6 °C 1009.7 hPa Calm   0.3 km/h 92 % 1.78 mm
08:59 4.7 °C 3.5 °C 1009.7 hPa NNW 1.9 km/h 0.6 km/h 92 % 1.78 mm
09:04 4.6 °C 3.2 °C 1010 hPa WNW 1.9 km/h   91 % 1.78 mm
09:09 4.5 °C 3.2 °C 1010 hPa NW 1.9 km/h   91 % 1.78 mm
09:14 4.5 °C 3.2 °C 1010.4 hPa Calm     91 % 1.52 mm
09:19 4.5 °C 3.2 °C 1010.4 hPa NW 3.7 km/h   91 % 1.52 mm
09:24 4.6 °C 3.3 °C 1010.4 hPa SE 1.6 km/h 0.8 km/h 92 % 1.27 mm
09:29 4.7 °C 3.4 °C 1010.4 hPa SE 1.9 km/h 1.4 km/h 92 % 0.76 mm
09:34 4.8 °C 3.6 °C 1010.4 hPa SSE 1.9 km/h   92 % 0.51 mm
09:39 4.9 °C 3.6 °C 1010.4 hPa Calm     91 % 0.51 mm
09:44 5 °C 3.7 °C 1010.4 hPa Calm     91 % 0.25 mm
09:49 5.2 °C 3.9 °C 1010.7 hPa Calm     91 % 0 mm
09:54 5.4 °C 3.9 °C 1010.7 hPa Calm     90 % 0 mm
09:59 5.9 °C 4.5 °C 1010.7 hPa Calm     91 % 0 mm
10:04 6.5 °C 4.9 °C 1011.1 hPa Calm     90 % 0 mm
10:09 7 °C 5.4 °C 1011.1 hPa Calm     90 % 0 mm
10:14 7.4 °C 5.3 °C 1011.1 hPa Calm     87 % 0 mm
10:19 7.2 °C 4.8 °C 1011.4 hPa Calm     85 % 0 mm
10:24 7.1 °C 4.9 °C 1011.4 hPa Calm     86 % 0 mm
10:29 7.1 °C 4.8 °C 1011.4 hPa Calm     86 % 0 mm
10:34 6.9 °C 4.8 °C 1011.4 hPa Calm     86 % 0 mm
10:39 6.9 °C 4.7 °C 1011.4 hPa Calm     86 % 0 mm
10:44 6.8 °C 4.7 °C 1011.7 hPa Calm     86 % 0 mm
10:49 6.7 °C 4.2 °C 1011.7 hPa Calm     84 % 0 mm
10:54 6.8 °C 4.5 °C 1011.7 hPa SE 3.7 km/h 1.6 km/h 85 % 0 mm
10:59 6.9 °C 4.9 °C 1011.7 hPa SE 3.2 km/h 2.4 km/h 87 % 0 mm
11:04 7.1 °C 5.1 °C 1011.7 hPa SE 5.6 km/h 2.9 km/h 87 % 0 mm
11:09 7.3 °C 5.3 °C 1011.7 hPa SE 3.7 km/h 2.6 km/h 87 % 0 mm
11:14 7.5 °C 5.6 °C 1011.7 hPa SSE 3.7 km/h 1.4 km/h 88 % 0 mm
11:19 7.7 °C 5.6 °C 1011.7 hPa Calm   0.2 km/h 87 % 0 mm
11:24 7.6 °C 5.3 °C 1011.7 hPa SE 4.8 km/h 1.3 km/h 86 % 0 mm
11:29 7.4 °C 5.2 °C 1012.1 hPa SE 5.6 km/h 1 km/h 86 % 0 mm
11:34 7.4 °C 5.2 °C 1012.1 hPa South 5.6 km/h 1.4 km/h 86 % 0 mm
11:39 7.3 °C 5.1 °C 1012.1 hPa SSE 3.7 km/h 0.8 km/h 86 % 0 mm
11:44 7.3 °C 5.1 °C 1012.1 hPa SSE 5.6 km/h 0.5 km/h 86 % 0 mm
11:49 7.4 °C 5.3 °C 1012.1 hPa South 3.7 km/h 0.8 km/h 87 % 0 mm
11:54 7.6 °C 5.5 °C 1012.1 hPa ESE 5.6 km/h 4.7 km/h 87 % 0 mm
11:59 7.4 °C 5.2 °C 1012.1 hPa SSW 5.6 km/h 2.1 km/h 86 % 0 mm
12:04 7.4 °C 5.2 °C 1012.1 hPa ESE 5.6 km/h 3.7 km/h 86 % 0 mm
12:09 7.3 °C 5.3 °C 1012.1 hPa SE 6.4 km/h 2.3 km/h 87 % 0 mm
12:14 7.2 °C 5.2 °C 1012.1 hPa NNE 9.3 km/h 5.1 km/h 87 % 0 mm
12:19 7.2 °C 5.1 °C 1012.1 hPa SE 5.6 km/h 3.2 km/h 87 % 0 mm
12:24 7.2 °C 5 °C 1012.1 hPa ESE 7.4 km/h 4.8 km/h 86 % 0 mm
12:29 7.5 °C 5.3 °C 1012.1 hPa SSE 14.8 km/h 5.1 km/h 86 % 0.25 mm
12:34 7.9 °C 5.7 °C 1012.1 hPa SSW 9.3 km/h 4.8 km/h 86 % 0.25 mm
12:39 7.9 °C 5.3 °C 1012.1 hPa ESE 9.7 km/h 7.4 km/h 84 % 0.25 mm
12:44 7.6 °C 4.8 °C 1012.1 hPa SE 13 km/h 1.9 km/h 83 % 0.25 mm
12:49 7.5 °C 4.9 °C 1012.1 hPa SSE 14.8 km/h 3.7 km/h 84 % 0.25 mm
12:54 7.4 °C 5.1 °C 1011.7 hPa South 6.4 km/h 4.5 km/h 85 % 0.25 mm
12:59 7.6 °C 5 °C 1011.7 hPa SW 11.1 km/h 6 km/h 84 % 0.25 mm
13:04 7.7 °C 5.1 °C 1011.7 hPa ESE 9.3 km/h 3.9 km/h 84 % 0.25 mm
13:09 8.2 °C 5.6 °C 1011.7 hPa SE 11.1 km/h 2.6 km/h 84 % 0.25 mm
13:14 8.2 °C 5.3 °C 1011.7 hPa SE 16.7 km/h 7.4 km/h 82 % 0.25 mm
13:19 8.1 °C 5.3 °C 1011.7 hPa SSE 9.3 km/h 7.2 km/h 83 % 0.25 mm
13:24 7.8 °C 4.9 °C 1011.7 hPa SE 14.8 km/h 6 km/h 82 % 0.25 mm
13:29 7.5 °C 4.8 °C 1011.7 hPa SSE 14.8 km/h 5.3 km/h 83 % 0 mm
13:34 7.2 °C 4.8 °C 1011.7 hPa SE 14.8 km/h 6.1 km/h 85 % 0 mm
13:39 6.8 °C 4.7 °C 1011.7 hPa WSW 14.8 km/h 6.4 km/h 86 % 0 mm
13:44 6.7 °C 4.5 °C 1011.4 hPa ENE 13 km/h 7.7 km/h 86 % 0 mm
13:49 6.7 °C 4.7 °C 1011.4 hPa SE 18.5 km/h 9.5 km/h 87 % 0 mm
13:54 6.6 °C 4.4 °C 1011.7 hPa SE 9.3 km/h 5.3 km/h 86 % 0 mm
13:59 6.6 °C 4.6 °C 1011.7 hPa East 13 km/h 5.3 km/h 87 % 0 mm
14:04 6.7 °C 4.7 °C 1011.7 hPa SSE 9.3 km/h 4.8 km/h 87 % 0 mm
14:09 6.9 °C 4.9 °C 1011.7 hPa SE 13 km/h 3.9 km/h 87 % 0 mm
14:14 7.2 °C 5.1 °C 1011.7 hPa SE 5.6 km/h 4.5 km/h 87 % 0 mm
14:19 7.5 °C 5.4 °C 1011.7 hPa SSE 7.4 km/h 2.3 km/h 87 % 0 mm
14:24 8.3 °C 5.9 °C 1011.7 hPa SSE 11.3 km/h 6.9 km/h 85 % 0 mm
14:29 9 °C 5.7 °C 1011.7 hPa SE 11.1 km/h 5.6 km/h 80 % 0 mm
14:34 9.4 °C 6 °C 1011.7 hPa WSW 13 km/h 3.1 km/h 79 % 0 mm
14:39 9.7 °C 6.2 °C 1011.7 hPa South 6.4 km/h 3.5 km/h 79 % 0 mm
14:44 9.9 °C 5.7 °C 1011.7 hPa South 14.8 km/h 8.2 km/h 75 % 0 mm
14:49 9.8 °C 5.8 °C 1011.7 hPa SE 7.4 km/h 5.1 km/h 76 % 0 mm
14:54 9.9 °C 5.3 °C 1011.7 hPa SSE 13 km/h 4.8 km/h 73 % 0 mm
14:59 9.8 °C 4.8 °C 1011.7 hPa ESE 13 km/h 4 km/h 71 % 0 mm
15:04 9.6 °C 4.6 °C 1011.7 hPa East 11.1 km/h 6.4 km/h 71 % 0 mm
15:09 9.6 °C 4.8 °C 1011.7 hPa ESE 9.3 km/h 6.4 km/h 72 % 0 mm
15:14 9.7 °C 4.5 °C 1011.7 hPa ENE 16.7 km/h 9.2 km/h 70 % 0 mm
15:19 9.9 °C 4.9 °C 1011.7 hPa WSW 11.1 km/h 4.7 km/h 71 % 0 mm
15:24 10.2 °C 4.7 °C 1011.7 hPa East 18.5 km/h 5.6 km/h 69 % 0 mm
15:29 10 °C 4.1 °C 1011.7 hPa South 13 km/h 5.1 km/h 67 % 0 mm
15:34 9.5 °C 4.1 °C 1012.1 hPa WSW 9.3 km/h 6.3 km/h 69 % 0 mm
15:39 9.1 °C 3.9 °C 1012.1 hPa ENE 11.1 km/h 3.9 km/h 70 % 0 mm
15:44 8.7 °C 3.6 °C 1012.1 hPa SE 14.8 km/h 6 km/h 70 % 0 mm
15:49 8.5 °C 3.3 °C 1012.1 hPa SE 11.1 km/h 8.7 km/h 70 % 0 mm
15:54 8.3 °C 3.8 °C 1012.1 hPa SSE 9.3 km/h 6.8 km/h 73 % 0 mm
15:59 8.1 °C 4.1 °C 1012.1 hPa SE 9.7 km/h 6.9 km/h 76 % 0 mm
16:04 8 °C 4.2 °C 1012.1 hPa NE 7.4 km/h 2.7 km/h 77 % 0 mm
16:09 7.9 °C 4.2 °C 1012.1 hPa SSE 9.3 km/h 5.8 km/h 77 % 0 mm
16:14 8.1 °C 4.4 °C 1012.1 hPa SSW 11.1 km/h 2.4 km/h 78 % 0 mm
16:19 8.5 °C 4.5 °C 1012.1 hPa SW 9.7 km/h 8.9 km/h 76 % 0 mm
16:24 8.8 °C 4.6 °C 1012.4 hPa SSW 5.6 km/h 3.5 km/h 75 % 0 mm
16:29 9 °C 4.6 °C 1012.4 hPa SSE 11.3 km/h 8.7 km/h 74 % 0 mm
16:34 8.9 °C 4.2 °C 1012.4 hPa ESE 13 km/h 7.4 km/h 72 % 0 mm
16:39 8.6 °C 4.2 °C 1012.4 hPa SE 7.4 km/h 2.9 km/h 74 % 0 mm
16:44 8.3 °C 4.1 °C 1012.4 hPa SSE 14.8 km/h 9.7 km/h 75 % 0 mm
16:49 8 °C 3.8 °C 1012.4 hPa ESE 13 km/h 7.2 km/h 75 % 0 mm
16:54 7.9 °C 3.7 °C 1012.8 hPa SSW 7.4 km/h 4.3 km/h 75 % 0 mm
16:59 7.8 °C 3.8 °C 1012.8 hPa ESE 13 km/h 6.9 km/h 76 % 0 mm
17:04 7.6 °C 3.8 °C 1012.8 hPa SSE 6.4 km/h 4.5 km/h 77 % 0 mm
17:09 7.5 °C 3.7 °C 1012.8 hPa SE 7.4 km/h 5.8 km/h 77 % 0 mm
17:14 7.4 °C 3.6 °C 1012.8 hPa SSE 5.6 km/h 3.7 km/h 77 % 0 mm
17:19 7.3 °C 3.7 °C 1012.8 hPa SE 5.6 km/h 3.7 km/h 78 % 0 mm
17:24 7.2 °C 3.6 °C 1012.8 hPa SE 7.4 km/h 5.1 km/h 78 % 0 mm
17:29 7.1 °C 3.5 °C 1012.8 hPa SE 5.6 km/h 1.4 km/h 78 % 0 mm
17:34 7 °C 3.4 °C 1012.8 hPa South 3.7 km/h 0.5 km/h 78 % 0 mm
17:39 6.9 °C 3.3 °C 1012.8 hPa SE 1.6 km/h 0.2 km/h 78 % 0 mm
17:44 6.8 °C 3.4 °C 1013.1 hPa SE 3.7 km/h 1.8 km/h 79 % 0 mm
17:49 6.7 °C 3.5 °C 1013.1 hPa SSW 1.9 km/h 1 km/h 80 % 0 mm
Lozoyuela
Elogios de Weather Underground - 2 mb

Guión original por  Jim McMurry - jmcmurry@mwt.net Adaptado para la plantilla por  Wim van der Kuil - Leuven-Template.eu

Usted encontrará nuestra información del tiempo también en:

UK Metoffice

Weather Underground

Equipo utilizado:

Weather-station
Davis VP2

Weather-program
Weather Display

Weather-server
My Computer

Proveedor
My provider

Davis VP2

Weather Display

My Computer

My provider